Notices

What's New in latest Release from April 7th, 2021:

- Updated Glossary, including Speed of Maximum Gust, and Total Hourly Precipitation

- Updated national and regional climate services offices contacts and prices information

- Addition of station inventory lists for 1981-2010, 1971-2000, and 1961-1990 Normals.

If you haven't already, please take our survey and provide feedback about our website: https://eccc.sondage-survey.ca/f/LanguageSelection.aspx?s=442ca660-fcf1-47c0-95a9-59707d6fd709

Hourly Data Report for January 12, 2003

TORONTO CITY
ONTARIO

43°40'00.000" N
79°24'00.000" W
112.50 m
6158355
71508
XTO

Download Data

Hourly Data (January 2003)
Hourly Data Report for January 12, 2003
TIME
LST
Temp Definition
°C
Dew Point Definition
°C
Rel Hum Definition
%
Precip. Amount Definition
mm

Wind Dir Definition
10's deg

Wind Spd Definition
km/h
Visibility Definition
km
Stn Press Definition
kPa
Hmdx Definition


Wind Chill Definition


Weather Definition


00:00 -3.9 -8.3 71     0 LegendMM 100.17     LegendNANA
01:00
02:00 -3.6 -7.6 74     0 LegendMM 100.27     LegendNANA
03:00 -3.3 -9.8 61     0 LegendMM 100.38     LegendNANA
04:00 -3.8 -11.4 56     0 LegendMM 100.48     LegendNANA
05:00 -4.7 -11.6 58     0 LegendMM 100.56     LegendNANA
06:00 -5.2 -10.8 65     0 LegendMM 100.64     LegendNANA
07:00 -4.9 -9.1 72     0 LegendMM 100.70     LegendNANA
08:00 -5.3 -7.7 83     0 LegendMM 100.75     LegendNANA
09:00 -4.4 -6.9 83     0 LegendMM 100.79     LegendNANA
10:00 -2.4 -6.7 72     0 LegendMM 100.84     LegendNANA
11:00 -0.5 -7.8 58     0 LegendMM 100.87     LegendNANA
12:00 -0.7 -7.8 59     0 LegendMM 100.83     LegendNANA
13:00
14:00 -2.0 -9.2 58     0 LegendMM 100.77     LegendNANA
15:00 -2.3 -9.1 60     0 LegendMM 100.75     LegendNANA
16:00 -2.8 -9.4 60     0 LegendMM 100.75     LegendNANA
17:00 -3.2 -8.9 65     0 LegendMM 100.76     LegendNANA
18:00 -4.2 -9.5 67     0 LegendMM 100.67     LegendNANA
19:00 -4.3 -9.2 69     0 LegendMM 100.59     LegendNANA
20:00 -4.4 -8.9 71     0 LegendMM 100.49     LegendNANA
21:00 -3.8 -8.2 71     0 LegendMM 100.42     LegendNANA
22:00 -3.3 -7.5 73     0 LegendMM 100.33     LegendNANA
23:00                      

Notes on Data Quality.

Legend

  • E = Estimated
  • M = Missing
  • NA = Not Available*
  • [empty] = Indicates an unobserved value
Date modified: